• Join FlightAware (Why Join?)
  • Login
  • US Flag 
01:55AM EDT


 

Airport Tracker/Info


-or-


 

Live Flight TrackerFlight Track Log ✈ VH-VBH ✈ 04-Jun-2013 ✈ YBCG / OOL - YBAF

Flight Track Log - Related Links

Times and Time Zones

All times are in EDT time to prevent confusion due to time zone crossing. See the VH-VBH flight status page for this flight to view local times or setup timezone preferences in your user account.

Time Position Orientation Groundspeed Altitude Reporting Facility
EDT Latitude Longitude Course Direction KTS MPH feet Rate Location/Type
06:53PM -28.1714 153.4963 308° West 58 67 1,100  Level Aus ATC (RADAR)
06:54PM -28.1670 153.4899 308° West 69 79 1,400 480 Climbing Aus ATC (RADAR)
06:54PM -28.1547 153.4723 309° West 106 122 1,600 60 Climbing Aus ATC (RADAR)
06:55PM -28.1331 153.4451 312° West 126 145 1,500 -120 Descending Aus ATC (RADAR)
06:56PM -28.1167 153.4268 315° West 122 140 1,500  Level Aus ATC (RADAR)
06:57PM -28.0932 153.3980 313° West 124 143 1,500  Level Aus ATC (RADAR)
06:57PM -28.0769 153.3822 319° Northwest 131 151 1,500  Level Aus ATC (RADAR)
06:59PM -28.0287 153.3523 331° Northwest 138 159 1,500  Level Aus ATC (RADAR)
07:00PM -28.0034 153.3463 348° North 139 160 1,500  Level Aus ATC (RADAR)
07:01PM -27.9397 153.3393 354° North 138 159 1,500  Level Aus ATC (RADAR)
07:02PM -27.9074 153.3228 336° Northwest 142 163 1,500  Level Aus ATC (RADAR)
07:03PM -27.8883 153.3155 341° North 143 165 1,500  Level Aus ATC (RADAR)
07:04PM -27.8380 153.2942 339° North 135 155 1,500  Level Aus ATC (RADAR)
07:04PM -27.8277 153.2865 327° Northwest 132 152 1,500  Level Aus ATC (RADAR)
07:05PM -27.8081 153.2684 321° Northwest 133 153 1,500  Level Aus ATC (RADAR)
07:06PM -27.7727 153.2440 329° Northwest 135 155 1,500  Level Aus ATC (RADAR)
07:07PM -27.7558 153.2337 332° Northwest 136 157 1,500  Level Aus ATC (RADAR)
07:07PM -27.7301 153.2149 327° Northwest 130 150 1,500  Level Aus ATC (RADAR)
07:08PM -27.7013 153.1950 328° Northwest 132 152 1,500  Level Aus ATC (RADAR)
07:09PM -27.6762 153.1808 333° Northwest 134 154 1,500  Level Aus ATC (RADAR)
07:09PM -27.6655 153.1738 330° Northwest 132 152 1,500  Level Aus ATC (RADAR)
07:10PM -27.6472 153.1556 319° Northwest 128 147 1,500  Level Aus ATC (RADAR)
07:11PM -27.6257 153.1326 317° Northwest 129 148 1,500  Level Aus ATC (RADAR)
07:11PM -27.6112 153.1213 325° Northwest 124 143 1,500  Level Aus ATC (RADAR)
07:12PM -27.5934 153.0849 299° West 115 132 1,500  Level Aus ATC (RADAR)
07:13PM -27.5897 153.0671 283° West 115 132 1,500  Level Aus ATC (RADAR)
07:14PM -27.5788 153.0331 290° West 93 107 1,500  Level Aus ATC (RADAR)
07:14PM -27.5771 153.0230 281° West 95 109 1,500 -240 Level Aus ATC (RADAR)
07:15PM -27.5712 153.0109 299° West 87 100 1,300 -840 Descending Aus ATC (RADAR)
07:16PM -27.5684 153.0057 301° West 49 56 300 -1,020 Descending Aus ATC (RADAR)